Presure
84 123 174 191 173 176 172 165 119 119 92 93 125 97 96 95 94 92 92 97 100 97 117 130 115 120 116 125 122 118 109 110 121 125 119 169 130 144 103 153 144 157 157
127 89 87 120 170 187 182 169 167 131 95 97 99 87 91 90 89 92 99 95 97 94 100 115 109 113 104 110 121 91 125 159 172 181 144 184 147 150 161 163 151 141 102
172 184 159 102 89 161 171 188 174 155 126 92 117 97 127 124 149 94 95 137 127 99 91 137 120 106 115 117 108 121 122 114 124 168 176 113 153 127 154 164 156 163 160
181 197 176 174 180 167 82 154 172 172 180 169 165 165 96 90 90 94 100 97 98 96 125 95 100 96 118 103 116 92 119 125 80 132 129 158 172 139 159 149 166 157 159
178 191 193 171 180 173 184 126 99 168 181 178 163 186 180 96 133 105 96 114 104 113 98 102 95 100 120 134 99 124 153 111 137 122 105 113 96 178 152 130 104 150 155
190 177 199 177 166 169 174 181 168 169 172 144 159 95 98 161 177 123 109 109 92 125 93 98 101 97 94 143 151 104 115 113 88 123 180 147 116 82 177 90 148 121 131
175 171 180 176 181 179 168 184 181 167 177 177 170 184 171 99 159 180 97 108 154 105 105 97 96 92 109 111 110 118 131 93 114 123 138 111 90 94 103 181 171 98 130
178 169 170 165 173 165 173 169 161 143 160 173 168 137 166 164 145 88 91 139 184 134 157 94 97 135 93 161 165 163 141 101 144 155 103 121 113 88 91 109 119 141 172
177 166 163 165 162 185 169 164 177 181 172 175 177 174 172 174 177 168 171 165 170 95 179 114 100 167 137 95 126 108 178 92 103 105 99 88 94 90 102 106 98 165 97
162 163 167 167 165 166 165 159 154 157 179 169 169 156 169 167 168 172 157 168 106 171 169 100 166 181 126 93 95 107 177 121 104 107 80 87 156 104 98 91 94 96 96
172 172 171 166 163 161 165 167 178 157 163 170 177 178 176 168 170 171 170 167 139 168 158 94 179 167 168 98 160 99 126 98 153 169 101 90 136 140 157 109 113 104 164
172 169 159 167 181 182 181 177 176 176 174 175 171 168 171 175 176 182 179 175 170 170 169 174 177 182 146 159 128 168 181 127 178 112 116 192 167 141 92 97 103 102 167
175 176 178 182 184 181 180 177 177 156 153 153 129 135 137 145 163 160 165 172 174 186 182 180 168 165 95 180 163 170 100 178 96 188 176 168 119 155 176 106 146 139 105
201 204 203 196 191 170 171 172 169 167 163 167 167 172 165 167 166 170 169 151 175 178 177 179 180 181 168 177 174 163 178 170 169 150 161 112 174 172 174 197 174 167 95
218 218 217 197 184 185 183 176 172 172 171 170 168 170 172 169 162 162 162 176 181 191 182 161 109 171 181 184 178 176 134 173 173 171 173 139 149 152 125 158 170 92 93
191 190 192 194 199 201 204 206 215 220 225 221 215 214 214 184 181 178 177 175 167 172 186 181 182 183 176 163 171 190 156 174 96 177 177 176 177 168 150 146 100 163 149
180 184 183 182 184 187 183 181 184 188 192 192 194 202 205 211 228 229 141 198 191 185 183 182 177 179 181 179 186 109 164 168 90 169 95 176 177 84 98 100 184 145 88
188 180 172 163 163 163 170 181 188 188 177 193 193 184 200 204 198 203 204 218 229 153 221 224 206 194 193 181 180 185 181 182 184 169 168 182 172 173 180 176 173 84 143
178 168 163 184 180 180 157 162 177 181 194 186 196 190 185 196 181 212 206 204 197 203 218 229 228 230 251 263 241 211 200 189 188 182 179 178 172 182 184 183 100 171 165
176 181 180 174 184 183 172 190 193 185 182 192 193 193 203 199 201 189 196 215 215 211 212 209 200 220 227 237 246 261 247 241 214 205 182 193 108 136 178 176 185 200 182
164 178 183 184 182 187 170 187 185 181 180 184 208 222 181 178 199 206 202 191 202 207 212 222 224 212 202 213 225 215 257 258 242 240 228 220 180 193 180 90 169 175 176
177 166 179 170 165 175 181 165 171 166 170 187 208 194 160 190 189 195 210 219 213 171 208 205 201 214 215 217 192 215 219 220 254 253 241 239 249 219 204 196 191 181 184
170 156 151 160 168 170 180 182 163 206 190 171 199 222 219 188 216 216 218 218 221 222 217 212 208 186 205 211 219 224 205 213 220 233 252 247 237 242 250 221 216 212 195
150 163 158 166 164 171 180 179 180 211 192 225 222 194 204 230 220 249 229 222 218 216 220 224 218 216 208 198 204 213 218 216 221 212 194 249 244 246 237 238 257 212 214
171 169 179 165 173 165 164 199 173 188 229 231 202 221 223 259 235 210 225 236 225 222 226 223 211 209 213 221 213 220 211 208 214 226 226 226 233 250 246 249 228 243 256
199 211 194 201 186 189 173 204 179 207 212 224 297 233 230 234 194 253 240 227 214 226 217 224 221 210 216 216 213 221 207 224 181 197 231 225 224 231 240 246 243 235 238
Wind_Speed
29 30 40 29 41 39 42 43 40 37 30 30 37 33 31 26 24 21 21 22 23 24 30 33 30 30 31 32 29 27 27 28 29 30 25 42 31 33 20 38 36 40 39
37 34 33 33 45 36 43 44 45 45 33 37 32 28 31 28 27 28 31 26 27 27 28 31 29 30 31 34 32 23 29 34 36 38 34 40 37 35 42 43 40 40 21
51 44 49 42 32 33 43 39 44 47 46 35 44 40 45 46 46 35 34 46 41 32 32 43 35 31 33 34 36 35 30 31 33 39 40 28 38 32 40 46 45 48 42
53 44 43 42 42 45 35 37 44 46 44 49 49 50 43 36 34 37 42 38 38 36 44 35 35 34 39 35 38 30 35 33 23 37 35 43 43 37 44 41 53 48 44
51 46 43 43 39 42 40 43 39 48 46 47 49 49 50 46 48 48 40 51 44 46 39 40 37 38 40 44 37 42 43 36 37 36 32 35 28 45 47 36 25 47 47
47 40 42 42 43 43 44 46 49 50 50 43 53 42 39 55 53 58 50 50 36 54 38 40 41 40 37 47 51 41 43 42 33 39 52 42 37 25 49 26 48 38 40
45 40 43 41 43 44 45 47 49 52 52 53 54 53 56 46 55 58 50 51 57 49 48 43 43 42 46 47 44 47 50 37 44 44 47 40 31 32 34 51 55 32 42
50 43 42 41 44 46 46 49 51 52 54 56 56 55 58 59 57 49 51 59 60 55 58 46 48 53 47 61 61 60 48 44 52 54 40 42 42 32 33 37 42 44 61
51 45 44 45 47 51 50 51 53 54 59 58 59 59 61 61 63 61 60 62 61 53 60 52 55 61 56 50 54 51 61 45 48 46 44 38 39 37 41 40 38 59 34
47 47 48 48 51 52 52 53 55 57 59 60 60 60 63 64 65 67 61 63 52 63 62 56 62 62 65 53 53 56 63 55 51 52 34 40 60 47 42 39 40 38 36
54 55 56 54 53 53 55 56 58 59 61 63 65 67 69 66 67 69 69 68 59 67 67 57 68 65 65 57 59 59 61 56 67 64 54 46 56 59 63 52 49 45 64
56 54 50 56 63 64 64 61 63 65 64 65 66 66 69 70 71 74 75 75 73 73 70 70 69 72 66 66 63 64 67 64 70 60 60 66 70 58 46 48 51 48 68
55 55 58 65 68 66 67 66 68 63 66 68 69 69 70 70 72 71 73 77 77 83 80 78 72 69 62 73 70 70 65 71 59 71 72 70 64 64 73 47 65 63 51
48 53 59 63 67 62 64 66 68 70 71 74 75 76 74 75 77 78 77 76 80 81 81 80 78 78 75 77 76 72 76 72 72 68 67 67 74 75 75 73 75 75 49
34 40 46 53 61 64 68 70 71 74 76 77 78 79 79 80 79 80 80 84 86 90 87 79 62 79 82 83 82 80 72 78 78 76 76 70 69 73 66 74 75 52 52
36 39 41 43 45 48 51 54 55 58 60 69 75 80 79 88 88 89 90 89 86 88 90 88 88 88 85 82 83 87 78 83 70 83 83 81 82 79 74 71 61 76 71
41 44 46 48 50 51 55 58 60 62 65 70 73 75 76 77 76 78 88 97 98 97 95 95 91 90 91 89 91 68 85 85 69 85 67 86 84 54 67 63 82 70 49
49 50 50 53 56 59 59 61 61 64 68 68 71 76 79 82 83 83 83 82 83 89 85 98 99 100 100 96 94 94 93 93 95 89 88 92 91 88 91 88 85 56 79
55 52 54 59 61 62 68 66 67 70 72 76 75 75 77 78 87 84 87 87 88 88 88 88 91 91 83 82 95 104 103 99 98 97 97 96 94 96 95 94 75 90 89
62 62 64 65 67 71 72 76 78 81 74 76 73 74 81 85 83 82 86 88 89 90 90 91 91 88 86 85 83 85 93 96 104 102 101 104 73 84 98 95 97 99 99
67 69 69 69 72 73 77 83 82 72 71 77 88 91 71 74 79 85 87 86 87 89 89 89 89 91 92 88 86 88 85 88 93 93 99 103 103 106 102 72 96 97 96
72 73 76 73 73 79 83 68 74 61 59 89 93 86 88 80 80 81 90 96 96 100 94 90 90 90 91 90 95 88 88 88 87 89 93 94 93 105 105 108 107 103 103
79 73 61 74 88 82 94 83 66 96 102 88 97 111 106 87 97 98 98 98 100 101 101 99 91 98 89 91 90 90 92 89 88 89 90 92 95 93 91 104 107 108 109
68 87 82 93 89 99 103 89 98 89 113 98 108 94 104 106 104 102 102 105 97 97 101 104 101 98 91 94 93 90 89 92 94 92 102 91 92 93 95 94 90 109 107
89 95 93 96 102 88 74 105 85 120 96 109 101 116 115 98 101 93 96 105 98 97 104 104 94 91 95 101 101 104 93 92 92 96 98 98 94 91 92 91 97 93 95
71 73 86 89 104 107 106 102 88 112 110 113 96 112 109 107 89 101 103 100 92 99 97 103 102 94 101 100 100 105 103 105 101 96 96 101 99 94 92 94 94 95 94
Wind_Direction
258 249 230 218 232 233 234 235 241 243 253 255 238 256 258 261 256 250 244 247 248 244 246 244 244 240 249 251 244 256 252 262 260 260 231 235 255 235 234 239 245 238 236
247 266 261 251 231 226 231 236 241 244 245 246 244 250 252 251 249 252 254 244 236 241 247 247 245 244 258 263 255 228 249 247 235 237 250 236 249 233 236 236 239 250 245
231 230 236 248 241 235 234 233 237 245 242 245 242 247 240 242 242 248 247 250 245 240 237 251 243 243 242 245 261 259 249 254 261 237 236 239 239 252 238 234 240 241 239
225 225 227 230 232 239 239 230 238 238 235 243 246 246 246 249 248 247 248 245 243 239 249 240 241 238 248 245 246 231 255 256 232 262 236 243 235 252 244 246 238 243 239
237 225 221 232 236 236 225 243 243 241 235 239 238 238 239 246 246 247 247 247 245 244 241 239 244 242 244 250 244 250 256 243 246 260 246 257 239 236 248 239 234 248 242
238 247 228 232 240 241 242 234 246 245 241 242 249 249 251 249 239 243 247 248 243 250 240 243 243 248 247 249 249 246 247 246 231 254 244 244 251 232 237 227 252 237 243
247 247 246 245 240 239 243 236 238 249 240 240 245 242 247 251 243 241 253 251 249 248 246 243 244 245 248 251 250 250 248 242 249 248 256 246 237 235 236 238 237 237 239
242 247 246 247 249 247 247 249 251 253 250 247 250 246 251 254 245 249 249 248 250 250 250 241 241 245 244 254 252 252 248 249 251 250 243 245 247 242 239 245 240 239 238
247 248 248 249 250 247 249 253 249 247 250 249 250 251 252 253 249 256 247 248 251 248 253 247 245 255 248 245 243 245 249 240 247 248 244 238 241 241 248 243 241 247 238
251 254 253 252 253 251 250 251 254 256 251 255 255 255 255 256 256 256 260 257 251 254 255 247 255 255 253 241 245 244 252 250 244 245 240 241 248 249 242 246 246 245 242
249 251 253 255 255 255 256 256 256 256 256 256 255 255 254 257 257 257 258 258 258 258 253 250 253 254 255 246 253 246 248 245 251 249 245 246 249 247 248 256 248 251 249
254 259 261 254 256 256 258 258 258 258 257 256 256 258 259 259 259 257 257 257 258 258 259 258 256 253 252 255 249 255 255 247 249 245 248 247 252 247 244 242 250 251 251
255 259 259 259 260 260 261 262 262 258 258 258 255 257 257 256 257 256 258 260 260 256 257 256 255 255 251 256 257 257 246 256 247 250 249 250 247 249 249 247 246 246 242
259 260 260 260 260 264 264 264 263 263 263 263 264 263 262 262 262 261 260 256 259 259 260 259 257 255 254 254 254 256 257 256 254 252 248 251 249 250 252 247 250 250 247
276 274 271 267 263 263 262 262 263 264 264 264 264 265 264 263 263 263 264 263 261 259 258 256 254 255 256 254 253 254 252 255 255 254 254 251 249 249 248 250 251 245 247
278 273 272 271 271 273 272 271 274 274 273 270 269 269 268 264 263 263 263 263 261 263 261 259 257 257 255 253 252 253 250 251 250 255 255 252 252 247 249 250 249 249 249
284 278 275 274 274 272 269 268 269 272 274 272 270 271 270 270 271 268 258 262 263 262 260 260 259 258 257 255 254 256 251 250 249 248 250 252 251 251 249 251 250 250 255
289 283 276 273 274 271 273 271 275 274 269 272 271 270 273 272 269 267 266 267 266 259 262 263 261 260 259 256 255 253 252 251 251 251 248 250 251 246 248 248 248 254 250
293 283 284 287 285 282 270 271 276 275 278 273 271 267 267 271 268 271 269 266 263 262 263 264 263 263 262 260 259 257 255 253 251 251 250 250 248 250 248 247 254 245 245
298 294 290 290 287 286 280 282 282 283 277 278 274 273 270 270 270 268 269 269 265 264 264 262 261 261 262 263 261 258 258 257 255 253 249 250 251 250 249 248 249 249 248
298 294 291 290 288 286 284 281 280 280 274 273 275 276 274 271 273 271 269 264 267 266 265 264 264 261 258 258 260 258 257 256 257 255 253 251 249 249 249 251 249 248 247
295 294 292 287 292 290 295 284 286 271 264 284 283 285 268 287 282 270 275 269 267 262 267 264 262 263 262 260 252 257 257 257 254 254 255 254 253 249 249 248 247 248 249
295 291 285 298 296 294 290 293 273 285 290 269 291 283 285 282 275 279 276 273 268 266 265 265 264 259 260 261 261 261 251 255 258 256 252 252 252 252 251 248 248 248 247
295 296 300 299 298 295 291 296 297 294 292 295 283 295 293 284 286 266 270 264 270 269 267 265 265 263 259 255 257 258 259 256 258 253 250 252 252 251 250 249 248 248 248
292 292 288 297 292 301 295 287 296 293 302 295 297 287 288 272 280 283 276 266 268 268 263 264 263 262 263 261 261 262 254 252 254 257 259 258 254 251 251 249 248 248 247
293 304 285 301 295 293 298 292 291 289 289 294 289 287 287 283 283 271 269 270 272 268 267 264 264 263 264 261 260 260 259 257 253 253 251 255 255 251 249 248 246 247 247